Home > Weather > Montreal > Past weeks

Flag for Canada Past Weather in Montreal, Quebec, Canada — Yesterday and Last 2 Weeks

Now
72 °F

Scattered clouds.


Feels Like: 74 °F
Forecast: 67 / 84 °F
Wind: 14 mph from Southwest

Location: Montreal - Pierre Elliot Trudeau International Aiport

Current Time: Aug 24, 2016 at 10:09:58 AM

Latest Report: Aug 24, 2016 at 9:00 AM


Visibility: 30 mi

Pressure: 30.17 "Hg

Humidity: 73%

Dew Point: 63 °F

Location of MontrealLocation

Past Weather in Montreal — Graph

°F

Montreal Temperature Yesterday

Maximum temperature yesterday: 79 °F (at 4:00 PM)
Minimum temperature yesterday: 57 °F (at 4:00 AM)
Average temperature yesterday: 68 °F

High & Low Weather Summary for the Past Weeks

 TemperatureHumidityPressure
High90 °F (Aug 10, 3:00 PM)100% (Aug 13, 10:00 PM)30.21 "Hg (Aug 13, 10:00 PM)
Low57 °F (Aug 22, 6:00 AM)35% (Aug 9, 4:00 PM)29.68 "Hg (Aug 21, 3:00 PM)
Average72 °F72%29.95 "Hg
* Reported Aug 9 9:00 AM — Aug 24 9:00 AM, Montreal, Weather by CustomWeather, © 2016

Note: Actual official high and low records may vary slightly from our data, if they occured in-between our weather recording intervals... More about our weather records

Advertising

Montreal Weather History for the Previous 24 Hours

Scroll right to see more
 ConditionsComfort  
Time TempWeatherWind HumidityBarometerVisibility
9:00 AM
Wed, Aug 24
72 °FScattered clouds.14 mph73%30.17 "Hg30 mi
8:00 AM68 °FPassing clouds.8 mph78%30.18 "Hg30 mi
7:00 AM66 °FPassing clouds.9 mph83%30.17 "Hg30 mi
6:00 AM66 °FPassing clouds.12 mph83%30.16 "Hg15 mi
5:00 AM66 °FPassing clouds.8 mph83%30.15 "Hg15 mi
4:00 AM68 °FPassing clouds.9 mph78%30.14 "Hg15 mi
3:00 AM66 °FPassing clouds.6 mph78%30.14 "Hg15 mi
2:00 AM68 °FPassing clouds.9 mph73%30.15 "Hg15 mi
1:00 AM70 °FPassing clouds.13 mph69%30.15 "Hg15 mi
12:00 AM70 °FPassing clouds.13 mph69%30.15 "Hg15 mi
11:00 PM
Tue, Aug 23
72 °FClear.13 mph65%30.14 "Hg15 mi
10:00 PM72 °FClear.15 mph65%30.13 "Hg15 mi
9:00 PM73 °FPassing clouds.15 mph65%30.12 "Hg15 mi
8:00 PM75 °FScattered clouds.18 mph57%30.11 "Hg30 mi
7:00 PM77 °FPassing clouds.17 mph54%30.11 "Hg30 mi
6:00 PM79 °FPassing clouds.18 mph54%30.11 "Hg30 mi
5:00 PM79 °FScattered clouds.18 mph51%30.12 "Hg30 mi
4:00 PM79 °FBroken clouds.21 mph51%30.14 "Hg30 mi
3:00 PM77 °FPassing clouds.22 mph51%30.15 "Hg30 mi
2:00 PM75 °FPassing clouds.20 mph50%30.16 "Hg30 mi
1:00 PM73 °FPassing clouds.17 mph57%30.17 "Hg30 mi
12:00 PM72 °FPassing clouds.24 mph65%30.18 "Hg30 mi
11:00 AM70 °FPassing clouds.21 mph60%30.19 "Hg30 mi
10:00 AM68 °FPassing clouds.15 mph73%30.19 "Hg30 mi
Weather by CustomWeather, © 2016

See weather overviewHow to use our weather pages